Weather History for Columbia Airport, CA

Change the Weather History Date:

Friday, August 30, 2013

  Actual Average (KMOD) Record (KMOD)
Temperature  
Mean Temperature 76 °F -  
Max Temperature 95 °F 92 °F 106 °F (1988)
Min Temperature 57 °F 62 °F 46 °F (1957)
Degree Days  
Heating Degree Days 0 0  
Month to date heating degree days 0  
Since 1 June heating degree days 3  
Since 1 July heating degree days 0  
Cooling Degree Days 11 12  
Month to date cooling degree days 390  
Year to date cooling degree days 1325  
Since 1 June cooling degree days 1126  
Growing Degree Days 26 (Base 50)    
Moisture  
Dew Point 43 °F    
Average Humidity 34    
Maximum Humidity 63    
Minimum Humidity 14    
Precipitation  
Precipitation 0.00 in 0.00 in 0.18 in (1953)
Month to date precipitation 0.02  
Year to date precipitation 8.77  
Since 1 July precipitation 0.02  
Snow  
Snow 0.00 in - - ()
Month to date snowfall  
Since 1 June snowfall  
Since 1 July snowfall  
Snow Depth -    
Sea Level Pressure  
Sea Level Pressure 30.04 in    
Wind  
Wind Speed 2 mph (West)    
Max Wind Speed 10 mph    
Max Gust Speed -    
Visibility 10 miles    
Events      
T = Trace of Precipitation, MM = Missing Value Source: NWS Daily Summary

Daily Weather History Graph

Daily Weather History Graph

Search for Another Location

Airport:

Trip Planner

Search our weather history database for the weather conditions in past years. The results will help you decide how hot, cold, wet, or windy it might be!

Date:

Astronomy

Aug. 30, 2013 Rise Set
Actual Time 6:30 AM PDT 7:33 PM PDT
Civil Twilight 6:02 AM PDT 8:00 PM PDT
Nautical Twilight 5:30 AM PDT 8:32 PM PDT
Astronomical Twilight 4:57 AM PDT 9:06 PM PDT
Moon 1:15 AM PDT (8/30) 3:50 PM PDT (8/30)
Length of Visible Light 13h 57m
Length of Day
13h 03m
Waning Crescent, 28% of the Moon is Illuminated
Aug 30
Waning Crescent
Sep 5
New
Sep 12
First Quarter
Sep 19
Full
Sep 26
Last Quarter

Hourly Weather History & Observations

Time (PDT) Temp. Dew Point Humidity Pressure Visibility Wind Dir Wind Speed Gust Speed Precip Events Conditions
12:15 AM 60.8 °F 44.6 °F 55% 30.07 in 10.0 mi Calm Calm - N/A   Clear
12:35 AM 60.8 °F 44.6 °F 55% 30.07 in 10.0 mi Calm Calm - N/A   Clear
12:55 AM 60.8 °F 44.6 °F 55% 30.07 in 10.0 mi Calm Calm - N/A   Clear
1:15 AM 59.0 °F 44.6 °F 59% 30.07 in 10.0 mi Calm Calm - N/A   Clear
1:35 AM 59.0 °F 44.6 °F 59% 30.06 in 10.0 mi Calm Calm - N/A   Clear
1:55 AM 59.0 °F 44.6 °F 59% 30.06 in 10.0 mi Calm Calm - N/A   Clear
2:15 AM 59.0 °F 44.6 °F 59% 30.06 in 10.0 mi Calm Calm - N/A   Clear
2:35 AM 60.8 °F 44.6 °F 55% 30.05 in 10.0 mi Calm Calm - N/A   Clear
2:55 AM 59.0 °F 44.6 °F 59% 30.05 in 10.0 mi Calm Calm - N/A   Clear
3:15 AM 59.0 °F 44.6 °F 59% 30.05 in 10.0 mi NNE 3.5 mph - N/A   Clear
3:35 AM 59.0 °F 44.6 °F 59% 30.05 in 10.0 mi Calm Calm - N/A   Clear
3:55 AM 59.0 °F 44.6 °F 59% 30.04 in 10.0 mi NE 3.5 mph - N/A   Clear
4:15 AM 59.0 °F 44.6 °F 59% 30.04 in 10.0 mi Calm Calm - N/A   Clear
4:35 AM 57.2 °F 44.6 °F 63% 30.05 in 10.0 mi NE 3.5 mph - N/A   Clear
4:55 AM 57.2 °F 44.6 °F 63% 30.05 in 10.0 mi Calm Calm - N/A   Clear
5:15 AM 59.0 °F 44.6 °F 59% 30.05 in 10.0 mi Calm Calm - N/A   Clear
5:35 AM 59.0 °F 44.6 °F 59% 30.05 in 10.0 mi Calm Calm - N/A   Clear
6:55 AM 59.0 °F 44.6 °F 59% 30.07 in 10.0 mi Calm Calm - N/A   Clear
7:15 AM 62.6 °F 46.4 °F 55% 30.07 in 10.0 mi Calm Calm - N/A   Clear
7:35 AM 64.4 °F 46.4 °F 52% 30.07 in 10.0 mi Calm Calm - N/A   Clear
7:55 AM 69.8 °F 46.4 °F 43% 30.07 in 10.0 mi Calm Calm - N/A   Clear
8:15 AM 75.2 °F 48.2 °F 38% 30.07 in 10.0 mi Calm Calm - N/A   Clear
8:35 AM 80.6 °F 46.4 °F 30% 30.07 in 10.0 mi Calm Calm - N/A   Clear
8:55 AM 82.4 °F 44.6 °F 26% 30.08 in 9.0 mi Calm Calm - N/A   Clear
9:15 AM 82.4 °F 44.6 °F 26% 30.08 in 9.0 mi Calm Calm - N/A   Clear
9:35 AM 84.2 °F 42.8 °F 23% 30.08 in 8.0 mi Calm Calm - N/A   Clear
9:55 AM 87.8 °F 42.8 °F 21% 30.08 in 6.0 mi West 3.5 mph - N/A   Clear
10:15 AM 89.6 °F 41.0 °F 18% 30.08 in 5.0 mi West 4.6 mph - N/A   Clear
10:35 AM 89.6 °F 37.4 °F 16% 30.08 in 8.0 mi West 5.8 mph - N/A   Clear
10:55 AM 89.6 °F 37.4 °F 16% 30.08 in 9.0 mi SW 6.9 mph - N/A   Clear
11:15 AM 89.6 °F 37.4 °F 16% 30.08 in 10.0 mi SW 5.8 mph - N/A   Clear
11:35 AM 91.4 °F 35.6 °F 14% 30.08 in 10.0 mi SW 3.5 mph - N/A   Clear
11:55 AM 91.4 °F 37.4 °F 15% 30.08 in 10.0 mi West 8.1 mph - N/A   Clear
12:15 PM 91.4 °F 39.2 °F 16% 30.07 in 10.0 mi SW 6.9 mph - N/A   Clear
12:35 PM 91.4 °F 39.2 °F 16% 30.07 in 10.0 mi WSW 6.9 mph - N/A   Clear
12:55 PM 93.2 °F 39.2 °F 15% 30.06 in 10.0 mi SSW 4.6 mph - N/A   Clear
1:15 PM 93.2 °F 41.0 °F 16% 30.05 in 10.0 mi WSW 6.9 mph - N/A   Clear
1:35 PM 95.0 °F 42.8 °F 16% 30.05 in 10.0 mi WSW 8.1 mph - N/A   Clear
1:55 PM 95.0 °F 42.8 °F 16% 30.04 in 10.0 mi Calm Calm - N/A   Clear
2:15 PM 95.0 °F 41.0 °F 15% 30.04 in 10.0 mi WSW 10.4 mph - N/A   Clear
2:35 PM 95.0 °F 41.0 °F 15% 30.03 in 10.0 mi WSW 8.1 mph - N/A   Clear
2:55 PM 95.0 °F 42.8 °F 16% 30.02 in 10.0 mi WSW 10.4 mph - N/A   Clear
3:15 PM 95.0 °F 42.8 °F 16% 30.02 in 10.0 mi SW 6.9 mph - N/A   Clear
3:35 PM 95.0 °F 42.8 °F 16% 30.02 in 10.0 mi SW 9.2 mph - N/A   Clear
3:55 PM 95.0 °F 42.8 °F 16% 30.01 in 10.0 mi SW 10.4 mph - N/A   Clear
4:15 PM 93.2 °F 42.8 °F 17% 30.01 in 10.0 mi SW 6.9 mph - N/A   Clear
4:35 PM 93.2 °F 41.0 °F 16% 30.00 in 10.0 mi West 6.9 mph - N/A   Clear
4:55 PM 93.2 °F 41.0 °F 16% 30.00 in 10.0 mi West 5.8 mph - N/A   Clear
5:15 PM 93.2 °F 41.0 °F 16% 29.99 in 10.0 mi West 6.9 mph - N/A   Clear
5:35 PM 91.4 °F 41.0 °F 17% 29.99 in 10.0 mi West 8.1 mph - N/A   Clear
5:55 PM 91.4 °F 41.0 °F 17% 29.99 in 10.0 mi WNW 5.8 mph - N/A   Clear
6:15 PM 89.6 °F 41.0 °F 18% 29.99 in 10.0 mi West 4.6 mph - N/A   Clear
6:35 PM 87.8 °F 42.8 °F 21% 29.98 in 10.0 mi WNW 4.6 mph - N/A   Clear
6:55 PM 86.0 °F 41.0 °F 20% 29.98 in 10.0 mi WNW 5.8 mph - N/A   Clear
7:15 PM 82.4 °F 41.0 °F 23% 29.99 in 10.0 mi WNW 3.5 mph - N/A   Clear
7:35 PM 80.6 °F 41.0 °F 24% 29.99 in 10.0 mi NW 3.5 mph - N/A   Clear
7:55 PM 80.6 °F 39.2 °F 23% 29.99 in 10.0 mi NNW 3.5 mph - N/A   Clear
8:15 PM 75.2 °F 44.6 °F 34% 30.00 in 10.0 mi NE 3.5 mph - N/A   Clear
8:35 PM 73.4 °F 44.6 °F 36% 30.00 in 10.0 mi NE 3.5 mph - N/A   Clear
8:55 PM 73.4 °F 44.6 °F 36% 30.01 in 10.0 mi NE 3.5 mph - N/A   Clear
9:15 PM 73.4 °F 42.8 °F 33% 30.01 in 10.0 mi NE 3.5 mph - N/A   Clear
9:35 PM 69.8 °F 42.8 °F 38% 30.01 in 10.0 mi NE 4.6 mph - N/A   Clear
9:55 PM 68.0 °F 42.8 °F 40% 30.02 in 10.0 mi NE 4.6 mph - N/A   Clear
10:15 PM 68.0 °F 42.8 °F 40% 30.02 in 10.0 mi NE 3.5 mph - N/A   Clear
10:35 PM 68.0 °F 42.8 °F 40% 30.02 in 10.0 mi Calm Calm - N/A   Clear
10:55 PM 66.2 °F 44.6 °F 46% 30.02 in 10.0 mi ENE 3.5 mph - N/A   Clear
11:15 PM 66.2 °F 44.6 °F 46% 30.01 in 10.0 mi NE 3.5 mph - N/A   Clear
11:35 PM 66.2 °F 44.6 °F 46% 30.02 in 10.0 mi Calm Calm - N/A   Clear
11:55 PM 64.4 °F 44.6 °F 49% 30.02 in 10.0 mi Calm Calm - N/A   Clear